| time (UTC) | temp C | wind direction | speed KPH | gust KPH | rain 1hr cm | rain 24hr cm | rain mn cm | humidity % | barometer mb |
| 20260507040045 | 7 | 0 | 0.0 | 0.0 | 0.00 | 0.00 | 0.00 | 81 | 1022.7 |
| 20260507034541 | 7 | 0 | 0.0 | 0.0 | 0.00 | 0.00 | 0.00 | 80 | 1022.5 |
| 20260507033042 | 7 | 0 | 0.0 | 0.0 | 0.00 | 0.00 | 0.00 | 79 | 1022.4 |
| 20260507031537 | 8 | 0 | 0.0 | 0.0 | 0.00 | 0.00 | 0.00 | 81 | 1022.3 |
| 20260507030045 | 8 | 0 | 0.0 | 0.0 | 0.00 | 0.00 | 0.00 | 85 | 1022.1 |
| 20260507024545 | 9 | 0 | 0.0 | 0.0 | 0.00 | 0.00 | 0.00 | 88 | 1022.0 |
| 20260507023040 | 10 | 0 | 0.0 | 0.0 | 0.00 | 0.00 | 0.00 | 86 | 1022.0 |
| 20260507021550 | 10 | 0 | 0.0 | 0.0 | 0.00 | 0.00 | 0.00 | 84 | 1021.8 |
| 20260507020040 | 11 | 0 | 0.0 | 0.0 | 0.00 | 0.00 | 0.00 | 82 | 1021.8 |
| 20260507014537 | 11 | 0 | 0.0 | 0.0 | 0.00 | 0.00 | 0.00 | 81 | 1021.7 |
| 20260507013040 | 11 | 0 | 0.0 | 3.2 | 0.00 | 0.00 | 0.00 | 78 | 1021.7 |
| 20260507011540 | 12 | 0 | 0.0 | 3.2 | 0.00 | 0.00 | 0.00 | 75 | 1021.7 |
| 20260507010045 | 12 | 227 | 0.0 | 1.6 | 0.00 | 0.00 | 0.00 | 74 | 1021.7 |
| 20260507004540 | 12 | 271 | 0.0 | 3.2 | 0.00 | 0.00 | 0.00 | 73 | 1021.6 |
| 20260507003040 | 13 | 0 | 0.0 | 3.2 | 0.00 | 0.00 | 0.00 | 71 | 1021.6 |
| 20260507001542 | 13 | 52 | 0.0 | 3.2 | 0.00 | 0.00 | 0.00 | 70 | 1021.5 |
| 20260507000042 | 14 | 211 | 0.0 | 8.0 | 0.00 | 0.00 | 0.00 | 67 | 1021.4 |
| 20260506234550 | 15 | 0 | 0.0 | 9.7 | 0.00 | 0.00 | 0.00 | 67 | 1021.3 |
| 20260506233038 | 15 | 321 | 0.0 | 8.0 | 0.00 | 0.00 | 0.00 | 65 | 1021.3 |
| 20260506231539 | 15 | 314 | 0.0 | 6.4 | 0.00 | 0.00 | 0.00 | 65 | 1021.1 |
| 20260506230046 | 15 | 248 | 1.6 | 4.8 | 0.00 | 0.00 | 0.00 | 64 | 1021.2 |
| 20260506224544 | 15 | 93 | 0.0 | 4.8 | 0.00 | 0.00 | 0.00 | 61 | 1021.1 |
| 20260506223047 | 15 | 329 | 1.6 | 12.9 | 0.00 | 0.00 | 0.00 | 60 | 1021.2 |
| 20260506221539 | 16 | 17 | 1.6 | 6.4 | 0.00 | 0.00 | 0.00 | 49 | 1021.1 |
| 20260506220038 | 15 | 17 | 1.6 | 11.3 | 0.00 | 0.00 | 0.00 | 57 | 1021.3 |
| 20260506214540 | 16 | 88 | 1.6 | 6.4 | 0.00 | 0.00 | 0.00 | 58 | 1021.3 |
| 20260506213042 | 16 | 30 | 1.6 | 6.4 | 0.00 | 0.00 | 0.00 | 56 | 1021.4 |
| 20260506211543 | 15 | 246 | 0.0 | 8.0 | 0.00 | 0.00 | 0.00 | 62 | 1021.7 |
| 20260506210041 | 15 | 77 | 0.0 | 4.8 | 0.00 | 0.00 | 0.00 | 58 | 1021.5 |
| 20260506204548 | 16 | 153 | 1.6 | 8.0 | 0.00 | 0.00 | 0.00 | 61 | 1021.7 |
| 20260506203037 | 15 | 11 | 1.6 | 11.3 | 0.00 | 0.00 | 0.00 | 64 | 1021.7 |
| 20260506201541 | 15 | 202 | 1.6 | 6.4 | 0.00 | 0.00 | 0.00 | 62 | 1021.7 |
| 20260506200057 | 15 | 300 | 0.0 | 4.8 | 0.00 | 0.00 | 0.00 | 64 | 1021.8 |
| 20260506194548 | 15 | 71 | 0.0 | 4.8 | 0.00 | 0.00 | 0.00 | 59 | 1021.8 |
| 20260506193038 | 14 | 351 | 1.6 | 6.4 | 0.00 | 0.00 | 0.00 | 63 | 1021.7 |
| 20260506191538 | 15 | 350 | 4.8 | 14.5 | 0.00 | 0.00 | 0.00 | 55 | 1021.8 |
| 20260506190039 | 15 | 335 | 1.6 | 9.7 | 0.00 | 0.00 | 0.00 | 51 | 1021.8 |
| 20260506184541 | 14 | 329 | 1.6 | 9.7 | 0.00 | 0.00 | 0.00 | 57 | 1021.8 |
| 20260506183057 | 13 | 343 | 1.6 | 8.0 | 0.00 | 0.00 | 0.00 | 55 | 1021.9 |
| 20260506181544 | 13 | 322 | 3.2 | 8.0 | 0.00 | 0.00 | 0.00 | 53 | 1021.8 |
| 20260506180051 | 13 | 313 | 3.2 | 12.9 | 0.00 | 0.00 | 0.00 | 53 | 1021.9 |
| 20260506174538 | 13 | 344 | 1.6 | 4.8 | 0.00 | 0.03 | 0.00 | 56 | 1021.6 |
| 20260506173037 | 12 | 298 | 3.2 | 8.0 | 0.00 | 0.03 | 0.00 | 59 | 1021.3 |
| 20260506171546 | 12 | 338 | 1.6 | 6.4 | 0.00 | 0.03 | 0.00 | 57 | 1021.1 |
| 20260506170046 | 12 | 46 | 1.6 | 6.4 | 0.00 | 0.03 | 0.00 | 59 | 1021.0 |
| 20260506164547 | 12 | 350 | 1.6 | 6.4 | 0.00 | 0.05 | 0.00 | 61 | 1020.9 |
| 20260506163038 | 12 | 327 | 1.6 | 4.8 | 0.00 | 0.05 | 0.00 | 57 | 1020.9 |
| 20260506161551 | 12 | 334 | 0.0 | 3.2 | 0.00 | 0.05 | 0.00 | 55 | 1020.7 |
| 20260506160044 | 12 | 60 | 0.0 | 3.2 | 0.00 | 0.05 | 0.00 | 52 | 1020.6 |
| 20260506154545 | 11 | 22 | 0.0 | 11.3 | 0.00 | 0.23 | 0.00 | 51 | 1020.5 |
| 20260506153040 | 10 | 49 | 3.2 | 11.3 | 0.00 | 0.23 | 0.00 | 53 | 1020.5 |
| 20260506151558 | 9 | 322 | 0.0 | 4.8 | 0.00 | 0.23 | 0.00 | 61 | 1020.3 |
| 20260506150039 | 8 | 0 | 0.0 | 3.2 | 0.00 | 0.23 | 0.00 | 65 | 1020.1 |
| 20260506144538 | 7 | 0 | 0.0 | 1.6 | 0.00 | 0.48 | 0.00 | 70 | 1020.1 |
| 20260506143047 | 6 | 0 | 0.0 | 1.6 | 0.00 | 0.48 | 0.00 | 74 | 1019.9 |
| 20260506141550 | 4 | 0 | 0.0 | 0.0 | 0.00 | 0.48 | 0.00 | 78 | 1020.0 |
| 20260506140040 | 2 | 0 | 0.0 | 0.0 | 0.00 | 0.48 | 0.00 | 85 | 1019.7 |
| 20260506134538 | 2 | 0 | 0.0 | 0.0 | 0.00 | 0.69 | 0.00 | 85 | 1019.6 |
| 20260506133048 | 2 | 0 | 0.0 | 0.0 | 0.00 | 0.69 | 0.00 | 85 | 1019.3 |
| 20260506131544 | 1 | 0 | 0.0 | 1.6 | 0.00 | 0.69 | 0.00 | 89 | 1019.2 |
| 20260506130048 | 1 | 0 | 0.0 | 0.0 | 0.00 | 0.69 | 0.00 | 91 | 1019.1 |
| 20260506124540 | 1 | 0 | 0.0 | 0.0 | 0.00 | 0.69 | 0.00 | 91 | 1018.9 |
| 20260506123049 | 1 | 0 | 0.0 | 0.0 | 0.00 | 0.69 | 0.00 | 90 | 1018.6 |
| 20260506121543 | 2 | 0 | 0.0 | 1.6 | 0.00 | 0.69 | 0.00 | 89 | 1018.8 |
| 20260506120044 | 2 | 0 | 0.0 | 6.4 | 0.00 | 0.69 | 0.00 | 90 | 1018.9 |
| 20260506114545 | 1 | 0 | 0.0 | 0.0 | 0.00 | 0.71 | 0.00 | 91 | 1018.6 |
| 20260506113041 | 2 | 0 | 0.0 | 1.6 | 0.00 | 0.71 | 0.00 | 93 | 1018.5 |
| 20260506111541 | 1 | 0 | 0.0 | 1.6 | 0.00 | 0.71 | 0.00 | 98 | 1018.4 |
| 20260506110046 | 1 | 0 | 0.0 | 3.2 | 0.00 | 0.71 | 0.00 | 98 | 1018.4 |
| 20260506104544 | 1 | 0 | 0.0 | 0.0 | 0.00 | 0.71 | 0.00 | 98 | 1018.2 |
| 20260506103043 | 0 | 0 | 0.0 | 0.0 | 0.00 | 0.71 | 0.00 | 98 | 1018.1 |
| 20260506101552 | 0 | 0 | 0.0 | 0.0 | 0.00 | 0.71 | 0.00 | 98 | 1018.1 |
| 20260506100039 | 0 | 0 | 0.0 | 0.0 | 0.00 | 0.71 | 0.00 | 98 | 1018.3 |
| 20260506094547 | 0 | 0 | 0.0 | 0.0 | 0.00 | 0.71 | 0.00 | 98 | 1018.3 |
| 20260506093037 | 0 | 0 | 0.0 | 0.0 | 0.00 | 0.71 | 0.00 | 98 | 1018.3 |
| 20260506091541 | 0 | 0 | 0.0 | 0.0 | 0.00 | 0.71 | 0.00 | 98 | 1018.3 |
| 20260506090042 | 0 | 0 | 0.0 | 0.0 | 0.00 | 0.71 | 0.00 | 98 | 1018.4 |
| 20260506084547 | 0 | 0 | 0.0 | 0.0 | 0.00 | 0.71 | 0.00 | 98 | 1018.4 |
| 20260506083041 | 0 | 0 | 0.0 | 0.0 | 0.00 | 0.71 | 0.00 | 98 | 1018.6 |
| 20260506081541 | 0 | 0 | 0.0 | 0.0 | 0.00 | 0.71 | 0.00 | 98 | 1018.6 |
| 20260506073046 | 1 | 0 | 0.0 | 0.0 | 0.00 | 0.74 | 0.00 | 98 | 1018.8 |
| 20260506071557 | 1 | 0 | 0.0 | 1.6 | 0.00 | 0.74 | 0.00 | 98 | 1018.8 |
| 20260506061540 | 2 | 0 | 0.0 | 0.0 | 0.00 | 0.79 | 0.74 | 98 | 1018.0 |
| 20260506044539 | 2 | 0 | 0.0 | 0.0 | 0.00 | 0.84 | 0.74 | 98 | 1017.6 |
| 20260506043040 | 2 | 0 | 0.0 | 0.0 | 0.00 | 0.84 | 0.74 | 98 | 1017.5 |
| 20260506041557 | 2 | 0 | 0.0 | 0.0 | 0.00 | 0.84 | 0.74 | 98 | 1017.5 |